Location: Keppel Henge
(44.7900°N, 80.9447°W)
Time: 18:47:26
(UTC-05:00)

OTV 5 (USA 277) - Pass Details

Date: 13 October 2017
Orbit: 404 x 417 km, 43.0° (Epoch: 07 September)

Event Time Altitude Azimuth Distance (km) Brightness Sun altitude
Rises 20:23:04 0° 257° (WSW) 2,352 ? -18.7°
Reaches altitude 10° 20:25:11 10° 253° (WSW) 1,490 ? -19.1°
Enters shadow 20:28:29 60° 177° (S) 481 ? -19.6°
